[[{"header":{"parameterUnit":"m.s-1","parameterCategory":1,"la1":30.2991,"la2":30.254,"lo1":-89.0895,"lo2":-89.0444,"dy":0.0017,"dx":0.0017,"nx":28,"ny":28,"refTime":"2024-05-11T21:00:00:Z","depth":0,"parameterNumber":2,"parameterNumberName":"U-component_of_WINDS"},"data":[0,0,0,0,0,0,0,0,0,0,0,0,0,0,0,0,0,0,0,0,0,0,0,0,0,0,0,0,0,0,0,0,0,0,0,0,0,0,0,0,0,0,0,0,0,0,0,0,0,0,0,0,0,0,0,0,0,0,-6.6512,-6.6512,0,-6.6498,-6.6498,-6.6497,-6.6396,-6.6394,-6.6392,-6.6389,-6.6375,-6.6376,-6.6378,0,0,0,0,0,0,0,0,0,0,0,0,0,-6.6453,-6.6455,-6.6512,-6.6512,-6.6512,-6.6498,-6.6498,-6.6497,-6.6397,-6.6394,-6.6391,-6.6388,-6.6374,-6.6376,-6.6379,0,0,0,0,0,0,0,0,0,0,0,0,0,-6.6463,-6.6455,-6.6512,-6.646,-6.6455,-6.6498,-6.6498,-6.6497,-6.6398,-6.6394,-6.639,-6.6387,-6.6373,-6.6376,-6.6379,-6.6471,0,0,-6.6388,-6.6389,0,0,0,0,0,0,0,0,-6.6463,-6.6465,-6.6468,-6.6463,-6.6458,-6.6445,-6.6471,-6.6488,-6.6398,-6.6419,-6.6389,-6.6385,-6.6401,-6.6401,-6.6407,-6.647,-6.6469,-6.6388,-6.639,-6.6391,-6.6392,0,0,0,0,0,0,0,-6.6462,-6.6465,-6.6506,-6.6468,-6.6462,-6.6438,-6.6435,-6.6474,-6.6431,-6.6417,-6.641,-6.641,-6.6398,-6.6404,-6.6406,-6.6469,-6.6388,-6.639,-6.6392,-6.6393,-6.6607,-6.6611,0,0,0,0,0,0,-6.6469,-6.6465,-6.6507,-6.6506,-6.6451,-6.6442,-6.6439,-6.6453,-6.643,-6.6423,-6.6413,-6.6405,-6.6401,-6.6403,-6.6405,-6.6509,-6.6391,-6.6393,-6.6395,-6.6603,-6.6608,-6.6612,0,0,0,0,0,0,-6.6468,-6.6473,-6.6507,-6.6484,-6.6486,-6.6447,-6.6464,-6.6455,-6.6461,-6.6427,-6.6419,-6.6427,-6.6398,-6.6401,-6.6455,-6.6508,-6.6395,-6.6397,-6.6599,-6.6605,-6.661,-6.6721,0,0,0,0,0,0,-6.6466,-6.6473,-6.6507,-6.6485,-6.6488,-6.6557,-6.6467,-6.6457,-6.6466,-6.6456,-6.6438,-6.6432,-6.6396,-6.6451,-6.6458,-6.6509,-6.64,-6.6593,-6.6601,-6.6608,-6.6712,-6.673,-6.6745,0,0,0,0,0,-6.6465,-6.6539,-6.6509,-6.6515,-6.6529,-6.6561,-6.6562,-6.6519,-6.6471,-6.6505,-6.6483,-6.6432,-6.6502,-6.6458,-6.6464,-6.6518,-6.659,-6.6599,-6.6608,-6.6705,-6.6726,-6.6744,0,0,0,0,0,0,-6.6567,-6.6535,-6.6502,-6.6571,-6.657,-6.6543,-6.6584,-6.6543,-6.6554,-6.6544,-6.649,-6.6487,-6.6549,-6.654,-6.6491,-6.6606,-6.6537,-6.6548,-6.6609,-6.6629,-6.6645,-6.6644,-6.6402,0,0,0,0,0,-6.6598,-6.6626,-6.6597,-6.666,-6.6662,-6.6624,-6.6636,-6.6603,-6.6599,-6.6598,-6.658,-6.6578,-6.6599,-6.6614,-6.6632,-6.6712,-6.6706,-6.6752,-6.6769,-6.6782,-6.6791,-6.6831,-6.6851,-6.6642,-6.6642,-6.6641,0,0,-6.6661,-6.6647,-6.6668,-6.6681,-6.6675,-6.6706,-6.6623,-6.6659,-6.6681,-6.6603,-6.6652,-6.664,-6.6635,-6.6702,-6.6731,-6.6695,-6.6848,-6.6794,-6.6805,-6.6805,-6.6843,-6.6862,-6.688,-6.6648,-6.6647,-6.6646,0,0,-6.6791,-6.6784,-6.6836,-6.6834,-6.6827,-6.6802,-6.6816,-6.6797,-6.6785,-6.6835,-6.6777,-6.6803,-6.6841,-6.684,-6.6844,-6.6978,-6.6931,-6.6986,-6.7069,-6.711,-6.7126,-6.714,-6.7186,-6.7203,-6.6995,-6.6996,-6.6996,0,-6.687,-6.6913,-6.6868,-6.6907,-6.6915,-6.6848,-6.69,-6.69,-6.69,-6.6907,-6.6868,-6.6915,-6.6907,-6.6973,-6.7006,-6.7012,-6.7025,-6.6985,-6.7128,-6.7141,-6.7154,-6.7197,-6.7215,-6.7002,-6.7001,-6.7001,-6.7,0,-6.7009,-6.7041,-6.7084,-6.7086,-6.7099,-6.7145,-6.7107,-6.7126,-6.7094,-6.7074,-6.7125,-6.7114,-6.7128,-6.7142,-6.7111,-6.7204,-6.7182,-6.7137,-6.7066,-6.7181,-6.722,-6.7237,-6.7011,-6.7009,-6.7007,-6.7006,0,0,-6.7198,-6.7178,-6.7194,-6.7194,-6.7185,-6.7208,-6.7252,-6.7267,-6.7283,-6.7287,-6.7322,-6.7357,-6.7316,-6.7321,-6.7289,-6.7326,-6.7431,-6.7275,-6.7275,-6.7302,-6.7531,-6.7562,-6.7582,-6.7402,-6.7405,-6.7407,-6.753,0,-6.732,-6.7393,-6.7356,-6.7433,-6.7461,-6.7401,-6.7439,-6.7437,-6.7421,-6.7443,-6.7424,-6.7449,-6.7394,-6.7396,-6.743,-6.7411,-6.7475,-6.7402,-6.7432,-6.7433,-6.7431,-6.7603,-6.7636,-6.7752,-6.7546,-6.7548,-6.755,0,-6.7471,-6.7482,-6.7563,-6.7549,-6.7559,-6.7594,-6.7605,-6.7628,-6.7625,-6.7611,-6.7619,-6.7579,-6.7622,-6.7556,-6.7614,-6.7565,-6.7576,-6.7569,-6.7572,-6.757,-6.7496,-6.7602,-6.7789,-6.7805,-6.7575,-6.7573,-6.7571,0,-6.7598,-6.7633,-6.7685,-6.7688,-6.7674,-6.77,-6.7696,-6.769,-6.7702,-6.7713,-6.7719,-6.7735,-6.7743,-6.7756,-6.7723,-6.7678,-6.7785,-6.7716,-6.7772,-6.7773,-6.7793,-6.7791,-6.7981,-6.7807,-6.7807,-6.7807,-6.7806,0,-6.7736,-6.7787,-6.7742,-6.7774,-6.783,-6.7788,-6.7845,-6.7834,-6.783,-6.7859,-6.7809,-6.7837,-6.7793,-6.7817,-6.7792,-6.7842,-6.7847,-6.7836,-6.7827,-6.7838,-6.7839,-6.7841,-6.7831,-6.7811,-6.781,-6.7809,-6.7809,0,-6.7884,-6.7856,-6.7909,-6.7893,-6.789,-6.7932,-6.7918,-6.7947,-6.7929,-6.7966,-6.7972,-6.7943,-6.7969,-6.7939,-6.7962,-6.7945,-6.8013,-6.7995,-6.8013,-6.8006,-6.8063,-6.8057,-6.8257,-6.828,-6.8096,-6.8098,-6.8099,0,-6.7971,-6.8009,-6.7998,-6.8014,-6.8013,-6.8039,-6.8051,-6.8014,-6.8029,-6.8031,-6.806,-6.8082,-6.8097,-6.8142,-6.8122,-6.8141,-6.812,-6.8189,-6.8122,-6.8131,-6.8118,-6.8114,-6.8117,-6.8201,-6.8204,-6.8205,-6.8207,0,-6.813,-6.8115,-6.8134,-6.815,-6.8166,-6.8177,-6.8183,-6.82,-6.816,-6.818,-6.8206,-6.8218,-6.8243,-6.8265,-6.8279,-6.8274,-6.8234,-6.8229,-6.8242,-6.8251,-6.8259,-6.8253,-6.8047,-6.8223,-6.8222,-6.822,-6.822,-6.8219,-6.8248,-6.8279,-6.8276,-6.83,-6.8301,-6.8309,-6.8336,-6.8322,-6.8343,-6.836,-6.8338,-6.8371,-6.8369,-6.8383,-6.8384,-6.8409,-6.8379,-6.8399,-6.8403,-6.8408,-6.8415,-6.8259,-6.8411,-6.8411,-6.841,-6.841,-6.841,0,-6.8401,-6.8397,-6.842,-6.8431,-6.845,-6.8414,-6.842,-6.8438,-6.8467,-6.847,-6.8487,-6.8518,-6.854,-6.8525,-6.8543,-6.8566,-6.8548,-6.8572,-6.8568,-6.8567,-6.8442,-6.8427,-6.8586,-6.8586,-6.8586,-6.8586,-6.8586,-6.8586,-6.8482,-6.8532,-6.8518,-6.8569,-6.8565,-6.8596,-6.8603,-6.861,-6.8612,-6.8649,-6.8668,-6.8658,-6.8653,-6.8672,-6.8691,-6.8686,-6.8693,-6.8723,-6.8712,-6.8594,-6.8576,-6.8559,-6.8545,-6.8726,-6.8726,-6.8834,-6.8835,-6.8836]},{"header":{"parameterUnit":"m.s-1","parameterCategory":1,"la1":30.2991,"la2":30.254,"lo1":-89.0895,"lo2":-89.0444,"dy":0.0017,"dx":0.0017,"nx":28,"ny":28,"refTime":"2024-05-11T21:00:00:Z","depth":0,"parameterNumber":3,"parameterNumberName":"V-component_of_WINDS"},"data":[0,0,0,0,0,0,0,0,0,0,0,0,0,0,0,0,0,0,0,0,0,0,0,0,0,0,0,0,0,0,0,0,0,0,0,0,0,0,0,0,0,0,0,0,0,0,0,0,0,0,0,0,0,0,0,0,0,0,2.3184,2.3185,0,2.3242,2.3243,2.3244,2.3294,2.3295,2.3295,2.3296,2.3352,2.3352,2.3353,0,0,0,0,0,0,0,0,0,0,0,0,0,2.3114,2.3115,2.3184,2.3185,2.3186,2.3242,2.3243,2.3244,2.3294,2.3295,2.3295,2.3296,2.3351,2.3352,2.3353,0,0,0,0,0,0,0,0,0,0,0,0,0,2.3155,2.3115,2.3184,2.3218,2.3221,2.3242,2.3243,2.3244,2.3294,2.3295,2.3296,2.3296,2.3351,2.3352,2.3354,2.3345,0,0,2.3358,2.3359,0,0,0,0,0,0,0,0,2.3153,2.3158,2.3212,2.3215,2.3219,2.3262,2.3239,2.3278,2.3294,2.3266,2.3296,2.3297,2.3321,2.3325,2.3334,2.3348,2.335,2.3358,2.3359,2.336,2.336,0,0,0,0,0,0,0,2.315,2.3156,2.3207,2.3213,2.3217,2.3229,2.3236,2.3247,2.3288,2.3269,2.3272,2.3279,2.3323,2.3332,2.3335,2.3351,2.3358,2.3359,2.336,2.3361,2.3362,2.3362,0,0,0,0,0,0,2.3142,2.3153,2.3205,2.3209,2.3188,2.323,2.3237,2.3247,2.3288,2.3295,2.3278,2.3281,2.3329,2.3334,2.3337,2.3331,2.336,2.3361,2.3362,2.3363,2.3362,2.3361,0,0,0,0,0,0,2.3141,2.3147,2.3203,2.3182,2.319,2.323,2.3241,2.3248,2.3257,2.3295,2.3302,2.328,2.333,2.3335,2.3343,2.3333,2.3362,2.3363,2.3364,2.3363,2.3362,2.3317,0,0,0,0,0,0,2.3139,2.3146,2.3143,2.3182,2.3191,2.3208,2.324,2.3249,2.326,2.3264,2.3299,2.3305,2.3331,2.3341,2.3345,2.3336,2.3364,2.3365,2.3364,2.3362,2.3319,2.3314,2.331,0,0,0,0,0,2.3136,2.3127,2.3143,2.3149,2.3189,2.3208,2.3213,2.3244,2.3259,2.3257,2.3281,2.3304,2.3334,2.3341,2.3346,2.3337,2.3366,2.3364,2.3362,2.3321,2.3315,2.331,0,0,0,0,0,0,2.3084,2.3132,2.315,2.3154,2.3177,2.3216,2.3214,2.3236,2.3254,2.3257,2.3294,2.3301,2.3305,2.3322,2.333,2.3332,2.3353,2.3352,2.3321,2.3315,2.331,2.3306,2.3365,0,0,0,0,0,2.3074,2.3086,2.3127,2.3126,2.3137,2.3173,2.3183,2.3205,2.3229,2.3239,2.3264,2.3285,2.33,2.3309,2.3324,2.3323,2.3331,2.3319,2.3314,2.331,2.3309,2.331,2.3305,2.3355,2.3355,2.3355,0,0,2.3051,2.3079,2.3084,2.3116,2.3136,2.3148,2.3181,2.3191,2.3199,2.324,2.3249,2.3269,2.3295,2.3299,2.3302,2.3313,2.3297,2.3308,2.3304,2.3305,2.3308,2.3303,2.3299,2.3354,2.3354,2.3355,0,0,2.3015,2.3038,2.304,2.306,2.3091,2.3116,2.3117,2.3154,2.3169,2.3179,2.321,2.3221,2.3245,2.3263,2.3275,2.325,2.3271,2.3254,2.3228,2.3229,2.3225,2.3222,2.3213,2.3209,2.3252,2.3252,2.3252,0,2.2982,2.3002,2.3038,2.3047,2.3061,2.31,2.3103,2.312,2.3154,2.3162,2.3175,2.3207,2.3228,2.3237,2.3231,2.324,2.3241,2.3249,2.3223,2.322,2.3218,2.3209,2.3206,2.325,2.325,2.325,2.325,0,2.296,2.2973,2.2971,2.3005,2.3019,2.3024,2.3061,2.307,2.3092,2.3116,2.3126,2.3153,2.3175,2.3179,2.32,2.3192,2.3198,2.3217,2.3238,2.321,2.3203,2.32,2.3246,2.3247,2.3248,2.3248,0,0,2.2891,2.2948,2.2946,2.2963,2.3001,2.3011,2.3019,2.3042,2.305,2.3072,2.3079,2.31,2.3119,2.3133,2.3156,2.3157,2.3136,2.3176,2.3177,2.3167,2.3128,2.3113,2.3109,2.3151,2.3151,2.315,2.3126,0,2.2862,2.2879,2.2913,2.2919,2.2932,2.2971,2.2978,2.3002,2.3025,2.3038,2.3063,2.3077,2.31,2.3109,2.3112,2.3137,2.3128,2.314,2.3157,2.3157,2.3148,2.3106,2.309,2.3065,2.3123,2.3123,2.3123,0,2.2829,2.2852,2.2859,2.2899,2.2905,2.2911,2.2936,2.2949,2.2977,2.2994,2.3011,2.3037,2.3047,2.3069,2.3083,2.309,2.31,2.3113,2.3113,2.3115,2.3137,2.3106,2.3058,2.3054,2.3119,2.3119,2.3119,0,2.2778,2.281,2.282,2.2833,2.2878,2.2882,2.2901,2.293,2.2943,2.2965,2.2973,2.2995,2.3007,2.3023,2.3055,2.3067,2.3066,2.3089,2.3079,2.3078,2.3076,2.3075,2.3029,2.3083,2.3083,2.3083,2.3083,0,2.2741,2.2744,2.2798,2.2803,2.2808,2.2848,2.2851,2.2874,2.29,2.2911,2.2946,2.2954,2.2996,2.301,2.3035,2.3043,2.3048,2.3061,2.3068,2.3058,2.3056,2.3063,2.3066,2.3082,2.3082,2.3083,2.3083,0,2.2684,2.272,2.2733,2.2777,2.2788,2.279,2.2827,2.2833,2.2859,2.2872,2.2877,2.2917,2.2935,2.2969,2.2996,2.3013,2.3016,2.3027,2.3006,2.301,2.2998,2.2999,2.2954,2.295,2.3007,2.3006,2.3006,0,2.2657,2.2661,2.2706,2.2717,2.2735,2.2751,2.2765,2.2804,2.2817,2.2851,2.2853,2.2875,2.2894,2.2921,2.2951,2.2973,2.2985,2.2968,2.2988,2.2978,2.2984,2.2983,2.2984,2.2962,2.2962,2.2961,2.296,0,2.2607,2.2625,2.2644,2.267,2.2686,2.2708,2.2732,2.2738,2.2782,2.2795,2.2815,2.283,2.2859,2.2879,2.2906,2.2924,2.2949,2.2954,2.2953,2.2942,2.293,2.2937,2.2993,2.2955,2.2955,2.2956,2.2956,2.2956,2.2564,2.257,2.2603,2.2624,2.2646,2.2668,2.2677,2.2705,2.2723,2.2751,2.2773,2.2791,2.2821,2.2859,2.2877,2.2891,2.2903,2.2901,2.29,2.2899,2.2895,2.2929,2.2896,2.2896,2.2896,2.2897,2.2897,0,2.2515,2.2539,2.2558,2.2591,2.2608,2.2633,2.266,2.2672,2.2688,2.2714,2.2733,2.2757,2.2777,2.2811,2.2834,2.2839,2.2852,2.2844,2.2844,2.2848,2.2883,2.2882,2.2834,2.2834,2.2834,2.2834,2.2834,2.2834,2.2492,2.2503,2.2526,2.2549,2.2573,2.2592,2.2606,2.2627,2.2648,2.2673,2.2691,2.2714,2.2743,2.2769,2.2789,2.2799,2.2805,2.2794,2.2807,2.2839,2.2845,2.2851,2.285,2.2795,2.2795,2.277,2.277,2.277]}]]